QPF
0.00 0.00 0.00 0.00 0.00 0.00 0.00 0.00 0.01 0.02 0.01 0.01 0.01 0.01 0.00 0.00 0.00 0.00 0.00 0.00 0.01 0.00 0.01 0.02 0.03 0.03 0.03 0.03 0.02 0.01 0.05 0.06 0.19 0.25 0.33 0.49 0.37 0.20 0.35 0.28 0.27 0.25
0.00 0.00 0.00 0.00 0.00 0.00 0.00 0.01 0.01 0.02 0.02 0.01 0.02 0.02 0.02 0.01 0.00 0.00 0.01 0.02 0.02 0.01 0.01 0.00 0.00 0.01 0.02 0.02 0.04 0.09 0.12 0.13 0.12 0.47 0.60 0.94 0.44 0.24 0.37 0.54 0.53 0.36
0.00 0.00 0.00 0.00 0.00 0.00 0.00 0.00 0.01 0.03 0.03 0.04 0.03 0.01 0.02 0.01 0.00 0.00 0.03 0.02 0.02 0.01 0.01 0.01 0.01 0.01 0.05 0.14 0.07 0.46 0.29 0.18 0.33 0.33 0.95 0.82 0.41 0.56 0.46 0.32 0.24 0.15
0.00 0.00 0.00 0.00 0.00 0.00 0.00 0.00 0.01 0.02 0.02 0.02 0.02 0.02 0.01 0.00 0.00 0.00 0.28 0.17 0.01 0.01 0.01 0.01 0.01 0.01 0.22 0.28 0.47 0.27 0.13 0.31 0.29 0.29 0.63 0.65 1.14 0.80 0.65 0.63 0.39 0.26
0.00 0.00 0.00 0.00 0.00 0.00 0.00 0.00 0.01 0.01 0.02 0.02 0.02 0.01 0.00 0.00 0.01 0.15 0.16 0.01 0.01 0.01 0.01 0.01 0.00 0.21 0.32 0.15 0.11 0.14 0.23 0.38 0.58 0.49 0.62 0.35 0.20 0.17 0.12 0.11 0.11 0.14
0.00 0.00 0.00 0.00 0.00 0.00 0.00 0.00 0.01 0.02 0.02 0.01 0.01 0.01 0.00 0.00 0.00 0.01 0.14 0.06 0.00 0.01 0.00 0.01 0.01 0.02 0.26 0.28 0.32 0.49 0.15 0.12 0.12 0.08 0.08 0.07 0.03 0.01 0.01 0.00 0.00 0.00
0.00 0.00 0.00 0.01 0.00 0.00 0.00 0.01 0.01 0.01 0.01 0.01 0.00 0.00 0.00 0.00 0.00 0.00 0.00 0.01 0.00 0.00 0.00 0.00 0.00 0.00 0.01 0.00 0.01 0.00 0.01 0.03 0.05 0.07 0.04 0.03 0.01 0.00 0.00 0.00 0.00 0.00
0.00 0.00 0.00 0.00 0.01 0.01 0.00 0.01 0.01 0.01 0.00 0.00 0.00 0.00 0.00 0.00 0.00 0.00 0.00 0.03 0.00 0.00 0.00 0.00 0.00 0.00 0.01 0.00 0.00 0.01 0.02 0.04 0.05 0.06 0.03 0.02 0.00 0.00 0.00 0.00 0.00 0.00
0.00 0.01 0.01 0.01 0.01 0.01 0.01 0.00 0.00 0.00 0.01 0.00 0.00 0.00 0.00 0.00 0.00 0.00 0.00 0.00 0.00 0.00 0.00 0.00 0.00 0.00 0.00 0.00 0.00 0.01 0.00 0.01 0.01 0.01 0.00 0.01 0.00 0.00 0.00 0.00 0.00 0.00
0.01 0.01 0.01 0.01 0.01 0.01 0.01 0.00 0.00 0.00 0.01 0.01 0.00 0.00 0.00 0.00 0.00 0.00 0.00 0.00 0.00 0.00 0.00 0.00 0.00 0.01 0.00 0.00 0.00 0.05 0.05 0.01 0.00 0.00 0.00 0.00 0.00 0.00 0.00 0.00 0.00 0.00
0.01 0.01 0.01 0.01 0.01 0.01 0.01 0.00 0.01 0.01 0.00 0.00 0.00 0.00 0.00 0.00 0.00 0.00 0.01 0.00 0.00 0.00 0.00 0.00 0.00 0.00 0.00 0.00 0.00 0.00 0.00 0.01 0.04 0.03 0.00 0.00 0.00 0.00 0.00 0.00 0.00 0.00
0.01 0.01 0.01 0.01 0.01 0.00 0.01 0.00 0.01 0.01 0.01 0.00 0.00 0.00 0.00 0.00 0.00 0.00 0.00 0.00 0.00 0.00 0.00 0.00 0.00 0.00 0.00 0.00 0.00 0.00 0.00 0.00 0.01 0.01 0.01 0.01 0.00 0.00 0.00 0.00 0.00 0.00
0.01 0.01 0.01 0.00 0.01 0.00 0.01 0.01 0.00 0.01 0.01 0.00 0.00 0.00 0.00 0.00 0.00 0.00 0.00 0.00 0.00 0.00 0.00 0.00 0.00 0.00 0.00 0.00 0.00 0.00 0.00 0.00 0.00 0.00 0.02 0.03 0.03 0.00 0.00 0.00 0.00 0.00
0.01 0.01 0.01 0.01 0.00 0.01 0.01 0.01 0.00 0.01 0.00 0.00 0.00 0.00 0.00 0.00 0.00 0.00 0.00 0.00 0.00 0.00 0.00 0.00 0.00 0.00 0.00 0.00 0.00 0.00 0.00 0.00 0.00 0.00 0.00 0.00 0.00 0.00 0.00 0.00 0.00 0.00
0.01 0.01 0.01 0.00 0.00 0.00 0.01 0.01 0.01 0.01 0.01 0.00 0.00 0.00 0.00 0.00 0.00 0.00 0.00 0.00 0.00 0.00 0.00 0.00 0.00 0.00 0.00 0.00 0.00 0.00 0.00 0.00 0.00 0.00 0.00 0.00 0.00 0.00 0.00 0.00 0.00 0.00
0.01 0.01 0.01 0.01 0.01 0.00 0.01 0.02 0.02 0.01 0.01 0.00 0.00 0.00 0.00 0.00 0.00 0.00 0.00 0.00 0.00 0.00 0.00 0.00 0.00 0.00 0.00 0.00 0.00 0.00 0.00 0.00 0.00 0.00 0.00 0.00 0.00 0.00 0.00 0.00 0.00 0.00
0.01 0.01 0.00 0.01 0.00 0.00 0.01 0.02 0.02 0.01 0.00 0.00 0.00 0.00 0.00 0.00 0.00 0.00 0.00 0.00 0.00 0.00 0.00 0.00 0.00 0.00 0.00 0.00 0.00 0.00 0.00 0.00 0.00 0.00 0.00 0.00 0.00 0.00 0.00 0.00 0.00 0.00
0.01 0.01 0.01 0.00 0.00 0.01 0.02 0.02 0.01 0.01 0.00 0.00 0.00 0.00 0.00 0.00 0.00 0.00 0.00 0.00 0.00 0.00 0.00 0.00 0.00 0.00 0.00 0.00 0.00 0.00 0.00 0.00 0.00 0.00 0.00 0.00 0.00 0.00 0.00 0.00 0.00 0.00
0.01 0.01 0.00 0.00 0.00 0.00 0.02 0.03 0.02 0.01 0.00 0.00 0.00 0.00 0.00 0.00 0.00 0.00 0.00 0.01 0.00 0.00 0.00 0.00 0.00 0.00 0.00 0.00 0.00 0.00 0.00 0.00 0.00 0.00 0.00 0.00 0.00 0.00 0.00 0.00 0.00 0.00
0.01 0.01 0.00 0.00 0.00 0.01 0.01 0.03 0.03 0.01 0.00 0.00 0.00 0.00 0.00 0.00 0.00 0.00 0.00 0.01 0.00 0.00 0.00 0.00 0.00 0.00 0.00 0.00 0.00 0.00 0.00 0.00 0.00 0.00 0.00 0.00 0.00 0.00 0.00 0.00 0.00 0.00
0.01 0.01 0.01 0.00 0.00 0.01 0.02 0.02 0.03 0.01 0.01 0.00 0.00 0.00 0.00 0.00 0.00 0.00 0.00 0.01 0.00 0.00 0.00 0.00 0.00 0.00 0.00 0.00 0.00 0.00 0.00 0.00 0.00 0.00 0.00 0.00 0.00 0.00 0.00 0.00 0.00 0.00
0.01 0.02 0.02 0.01 0.00 0.01 0.02 0.02 0.02 0.01 0.01 0.01 0.00 0.00 0.00 0.01 0.00 0.00 0.00 0.00 0.00 0.00 0.00 0.00 0.00 0.00 0.00 0.00 0.00 0.00 0.00 0.00 0.00 0.00 0.00 0.00 0.00 0.00 0.00 0.00 0.00 0.00
0.02 0.02 0.02 0.01 0.00 0.01 0.02 0.01 0.02 0.01 0.01 0.00 0.00 0.00 0.00 0.01 0.01 0.00 0.00 0.00 0.00 0.00 0.00 0.00 0.00 0.00 0.00 0.00 0.00 0.00 0.00 0.00 0.00 0.00 0.00 0.00 0.00 0.00 0.00 0.00 0.00 0.00
0.02 0.02 0.01 0.01 0.00 0.00 0.01 0.01 0.01 0.01 0.00 0.00 0.00 0.00 0.01 0.01 0.01 0.00 0.00 0.00 0.00 0.00 0.00 0.00 0.00 0.00 0.00 0.00 0.00 0.00 0.00 0.00 0.00 0.00 0.00 0.00 0.00 0.01 0.02 0.00 0.01 0.00
0.02 0.02 0.01 0.00 0.00 0.00 0.00 0.02 0.01 0.01 0.00 0.00 0.00 0.00 0.00 0.02 0.02 0.01 0.00 0.00 0.00 0.00 0.00 0.00 0.00 0.00 0.00 0.00 0.00 0.00 0.00 0.00 0.00 0.00 0.00 0.00 0.00 0.02 0.01 0.00 0.01 0.03
0.02 0.02 0.02 0.00 0.00 0.00 0.01 0.02 0.01 0.01 0.01 0.01 0.01 0.01 0.00 0.00 0.03 0.02 0.01 0.00 0.00 0.00 0.00 0.00 0.00 0.00 0.00 0.00 0.00 0.00 0.00 0.00 0.00 0.00 0.00 0.00 0.00 0.04 0.10 0.01 0.02 0.00
MSLP
1011.39 1011.75 1012.07 1012.31 1012.43 1012.59 1012.95 1013.35 1013.71 1014.03 1014.31 1014.59 1014.87 1014.91 1014.99 1015.11 1015.27 1015.59 1015.71 1015.75 1015.87 1016.07 1016.11 1016.19 1016.27 1016.43 1016.55 1016.71 1016.87 1017.11 1017.51 1017.63 1017.95 1018.63 1018.39 1018.59 1018.75 1018.67 1019.03 1019.43 1019.59 1019.63
1011.11 1011.43 1011.67 1011.87 1012.11 1012.27 1012.59 1012.83 1013.35 1013.79 1014.15 1014.27 1014.35 1014.47 1014.55 1014.87 1015.23 1015.47 1015.67 1015.79 1015.91 1016.03 1016.07 1016.23 1016.35 1016.43 1016.51 1016.59 1016.83 1017.15 1017.43 1017.63 1018.11 1018.59 1018.67 1018.71 1018.67 1018.63 1018.83 1019.07 1019.35 1019.59
1010.87 1011.27 1011.55 1011.75 1011.87 1012.11 1012.39 1012.63 1013.03 1013.51 1013.87 1014.07 1014.19 1014.31 1014.55 1014.79 1015.19 1015.39 1015.55 1015.75 1015.95 1016.03 1016.15 1016.27 1016.39 1016.51 1016.63 1016.83 1017.07 1017.43 1017.59 1017.99 1018.59 1018.99 1019.03 1019.23 1019.03 1018.87 1018.79 1019.07 1019.51 1019.83
1010.67 1010.95 1011.23 1011.47 1011.55 1011.87 1012.11 1012.51 1012.83 1013.31 1013.71 1014.11 1014.23 1014.27 1014.51 1014.83 1015.11 1015.43 1015.59 1015.79 1015.87 1016.03 1016.15 1016.27 1016.43 1016.59 1016.87 1017.07 1017.39 1017.59 1017.83 1018.11 1018.59 1018.99 1019.23 1019.35 1019.35 1019.23 1019.11 1019.23 1019.63 1020.03
1010.27 1010.67 1010.95 1011.23 1011.39 1011.59 1011.95 1012.35 1012.71 1013.15 1013.75 1013.87 1013.99 1014.23 1014.51 1014.95 1015.23 1015.43 1015.59 1015.79 1015.83 1016.07 1016.11 1016.31 1016.51 1016.71 1016.83 1017.07 1017.39 1017.67 1017.99 1018.27 1018.59 1018.79 1019.07 1019.43 1019.71 1019.71 1019.63 1019.59 1019.79 1019.99
1009.83 1010.23 1010.63 1010.99 1011.27 1011.55 1011.87 1012.07 1012.47 1012.95 1013.51 1013.75 1013.95 1013.99 1014.35 1014.87 1015.11 1015.39 1015.55 1015.67 1015.67 1015.79 1016.07 1016.35 1016.55 1016.67 1016.83 1017.11 1017.39 1017.55 1017.83 1017.95 1018.27 1018.43 1018.51 1018.79 1019.19 1019.35 1019.55 1019.67 1019.91 1020.11
1009.71 1010.07 1010.47 1010.71 1011.19 1011.43 1011.71 1011.95 1012.27 1012.67 1013.27 1013.51 1013.71 1014.03 1014.31 1014.75 1014.91 1015.03 1015.19 1015.47 1015.47 1015.59 1015.87 1016.15 1016.47 1016.75 1016.87 1017.07 1017.27 1017.51 1017.55 1017.63 1017.95 1018.11 1018.31 1018.47 1018.75 1019.15 1019.23 1019.35 1019.75 1020.11
1009.43 1009.87 1010.23 1010.55 1011.07 1011.43 1011.63 1011.79 1012.19 1012.71 1013.23 1013.51 1013.91 1014.15 1014.11 1014.39 1014.47 1014.67 1014.99 1015.23 1015.39 1015.55 1015.79 1016.11 1016.47 1016.67 1016.87 1016.95 1017.03 1017.27 1017.55 1017.83 1017.99 1018.07 1018.23 1018.51 1018.63 1018.91 1019.19 1019.43 1019.67 1019.79
1009.35 1009.79 1010.11 1010.51 1010.99 1011.35 1011.51 1011.63 1012.07 1012.59 1013.07 1013.63 1013.99 1014.23 1014.15 1014.15 1014.43 1014.63 1014.67 1014.95 1015.19 1015.35 1015.71 1016.11 1016.27 1016.47 1016.75 1016.95 1016.99 1017.15 1017.47 1017.71 1017.79 1017.91 1018.15 1018.35 1018.59 1018.71 1018.87 1019.11 1019.35 1019.39
1009.31 1009.63 1010.07 1010.47 1010.91 1011.11 1011.31 1011.55 1011.91 1012.55 1013.11 1013.43 1013.67 1013.95 1014.15 1013.95 1014.11 1014.51 1014.71 1014.95 1015.11 1015.23 1015.63 1015.91 1015.99 1016.35 1016.59 1016.63 1016.75 1016.99 1017.31 1017.51 1017.67 1017.83 1017.99 1018.23 1018.39 1018.51 1018.71 1018.99 1019.11 1019.31
1009.27 1009.55 1009.99 1010.39 1010.75 1010.87 1011.15 1011.43 1011.99 1012.75 1013.11 1013.23 1013.67 1013.95 1014.11 1014.11 1014.31 1014.35 1014.71 1014.83 1015.15 1015.03 1015.31 1015.55 1015.87 1016.19 1016.43 1016.63 1016.83 1017.07 1017.19 1017.39 1017.55 1017.75 1017.99 1018.23 1018.39 1018.55 1018.83 1018.91 1019.15 1019.19
1009.15 1009.47 1009.79 1010.11 1010.43 1010.71 1010.99 1011.43 1012.19 1012.83 1013.15 1013.35 1013.47 1013.79 1014.03 1014.07 1014.11 1014.35 1014.51 1014.75 1014.87 1015.07 1015.23 1015.39 1015.71 1016.03 1016.23 1016.59 1016.87 1017.11 1017.23 1017.43 1017.59 1017.83 1018.11 1018.43 1018.67 1018.75 1018.83 1018.91 1018.95 1019.07
1008.95 1009.27 1009.55 1009.83 1010.11 1010.43 1010.79 1011.43 1012.11 1012.67 1012.95 1013.23 1013.39 1013.67 1013.95 1013.71 1013.83 1014.15 1014.47 1014.47 1014.67 1014.99 1015.07 1015.39 1015.75 1015.99 1016.23 1016.59 1016.87 1016.99 1017.23 1017.47 1017.71 1018.03 1018.39 1018.79 1018.91 1018.91 1018.83 1018.75 1018.75 1018.91
1008.63 1008.99 1009.35 1009.55 1009.87 1010.23 1010.71 1011.31 1011.91 1012.47 1012.71 1012.99 1013.23 1013.51 1013.55 1013.59 1013.75 1013.95 1014.39 1014.31 1014.59 1014.87 1014.99 1015.43 1015.83 1016.11 1016.35 1016.59 1016.71 1016.95 1017.19 1017.47 1017.75 1018.03 1018.35 1018.75 1018.95 1018.91 1018.87 1018.83 1018.75 1018.75
1008.43 1008.83 1009.07 1009.39 1009.79 1010.11 1010.59 1011.27 1011.79 1012.15 1012.47 1012.83 1013.11 1013.15 1013.19 1013.39 1013.59 1013.79 1014.23 1014.35 1014.75 1014.75 1015.15 1015.59 1015.83 1016.11 1016.35 1016.59 1016.75 1017.03 1017.19 1017.47 1017.71 1017.91 1018.15 1018.51 1018.71 1018.75 1018.79 1018.75 1018.71 1018.79
1008.23 1008.59 1008.83 1009.23 1009.63 1009.99 1010.47 1011.11 1011.63 1011.99 1012.31 1012.67 1012.99 1012.87 1013.07 1013.27 1013.55 1013.87 1014.15 1014.47 1014.71 1014.91 1015.27 1015.67 1015.91 1016.15 1016.63 1016.83 1016.83 1016.87 1017.15 1017.35 1017.67 1017.91 1018.07 1018.27 1018.47 1018.59 1018.71 1018.63 1018.67 1018.83
1008.11 1008.43 1008.67 1009.07 1009.35 1009.79 1010.31 1010.99 1011.51 1011.91 1012.27 1012.51 1012.71 1012.79 1013.11 1013.31 1013.59 1013.87 1014.11 1014.39 1014.59 1014.87 1015.39 1015.75 1015.95 1016.35 1016.95 1017.11 1017.19 1017.23 1017.11 1017.35 1017.59 1017.83 1018.03 1018.19 1018.35 1018.51 1018.59 1018.67 1018.67 1018.71
1007.87 1008.19 1008.47 1008.75 1009.15 1009.67 1010.31 1010.83 1011.35 1011.79 1012.07 1012.31 1012.71 1012.87 1012.87 1013.27 1013.59 1013.71 1013.99 1014.19 1014.43 1014.79 1015.35 1015.67 1015.87 1016.67 1017.03 1017.27 1017.39 1017.43 1017.39 1017.31 1017.51 1017.75 1017.99 1018.07 1018.19 1018.23 1018.27 1018.39 1018.55 1018.79
1007.55 1007.87 1008.15 1008.47 1008.95 1009.51 1010.11 1010.71 1011.23 1011.71 1011.99 1012.23 1012.55 1012.51 1012.79 1013.31 1013.51 1013.71 1014.03 1014.07 1014.35 1014.79 1015.23 1015.51 1015.91 1016.87 1017.11 1017.39 1017.55 1017.59 1017.63 1017.47 1017.35 1017.63 1017.87 1017.91 1018.03 1018.15 1018.15 1018.35 1018.51 1018.79
1007.31 1007.55 1007.87 1008.27 1008.71 1009.31 1009.99 1010.59 1011.03 1011.47 1011.71 1011.91 1012.19 1012.51 1012.87 1013.07 1013.43 1013.79 1013.95 1014.11 1014.35 1014.75 1015.15 1015.39 1015.87 1016.91 1017.19 1017.51 1017.67 1017.75 1017.71 1017.63 1017.27 1017.67 1017.75 1017.87 1018.03 1018.11 1018.23 1018.39 1018.55 1018.71
1006.99 1007.27 1007.71 1008.19 1008.71 1009.35 1009.99 1010.43 1010.87 1011.35 1011.67 1011.83 1012.19 1012.59 1012.79 1013.03 1013.35 1013.63 1013.87 1014.15 1014.35 1014.63 1014.91 1015.35 1015.91 1016.87 1017.27 1017.55 1017.75 1017.87 1017.87 1017.79 1017.35 1017.67 1017.75 1017.91 1018.03 1018.15 1018.31 1018.39 1018.55 1018.71
1006.71 1007.11 1007.47 1008.03 1008.67 1009.23 1009.87 1010.43 1010.83 1011.27 1011.63 1011.87 1012.23 1012.47 1012.47 1012.67 1013.07 1013.39 1013.83 1014.15 1014.39 1014.63 1014.91 1015.27 1016.15 1016.95 1017.31 1017.59 1017.83 1017.95 1018.03 1017.71 1017.35 1017.67 1017.75 1017.87 1018.07 1018.15 1018.31 1018.35 1018.51 1018.71
1006.51 1007.03 1007.47 1008.11 1008.59 1009.07 1009.75 1010.23 1010.59 1010.99 1011.39 1011.71 1012.15 1012.31 1012.43 1012.67 1012.91 1013.27 1013.67 1014.03 1014.39 1014.59 1014.87 1015.23 1016.19 1017.19 1017.35 1017.67 1017.87 1018.03 1017.99 1017.27 1017.27 1017.47 1017.67 1017.91 1018.07 1018.19 1018.27 1018.39 1018.51 1018.67
1006.31 1006.83 1007.39 1007.95 1008.39 1008.95 1009.51 1009.87 1010.27 1010.79 1011.31 1011.59 1011.87 1012.15 1012.39 1012.55 1012.71 1012.91 1013.39 1013.71 1014.15 1014.35 1014.51 1014.99 1015.67 1016.91 1017.39 1017.63 1017.83 1017.99 1017.59 1017.03 1017.15 1017.27 1017.59 1017.83 1017.99 1018.27 1018.23 1018.43 1018.79 1019.27
1006.23 1006.67 1007.27 1007.79 1008.23 1008.75 1009.23 1009.59 1010.11 1010.63 1011.03 1011.35 1011.51 1011.75 1012.07 1012.19 1012.39 1012.59 1012.99 1013.35 1013.79 1014.03 1014.43 1014.75 1015.31 1016.71 1017.47 1017.55 1017.79 1017.83 1017.59 1016.91 1016.91 1016.99 1017.55 1017.75 1017.87 1018.19 1018.27 1018.31 1018.71 1019.23
1005.95 1006.59 1007.11 1007.51 1007.99 1008.55 1009.07 1009.35 1009.83 1010.51 1010.99 1011.11 1011.19 1011.35 1011.79 1011.95 1012.19 1012.35 1012.83 1013.11 1013.55 1013.95 1014.51 1014.59 1015.15 1016.23 1017.27 1017.55 1017.67 1017.75 1017.59 1016.87 1016.67 1016.91 1017.39 1017.67 1017.79 1017.91 1018.31 1018.43 1018.55 1018.83
Thickness
5731 5729 5726 5725 5723 5721 5719 5716 5713 5711 5708 5707 5705 5705 5705 5703 5702 5699 5697 5695 5694 5693 5692 5690 5688 5685 5682 5678 5675 5671 5664 5658 5654 5652 5655 5655 5652 5651 5647 5643 5640 5637
5731 5729 5726 5725 5723 5721 5719 5716 5713 5710 5708 5707 5706 5706 5705 5703 5700 5698 5695 5694 5692 5692 5690 5688 5686 5683 5681 5678 5675 5670 5665 5660 5653 5647 5646 5646 5646 5646 5644 5640 5637 5634
5730 5728 5725 5723 5721 5719 5717 5715 5713 5709 5707 5706 5705 5705 5703 5701 5698 5695 5693 5692 5691 5690 5689 5687 5683 5680 5678 5676 5672 5667 5663 5658 5650 5645 5642 5640 5641 5641 5640 5637 5633 5629
5728 5726 5724 5722 5721 5719 5716 5714 5711 5708 5705 5703 5703 5702 5701 5698 5696 5693 5691 5690 5689 5688 5686 5685 5682 5678 5675 5672 5668 5664 5660 5655 5649 5644 5640 5637 5636 5636 5636 5634 5629 5626
5727 5725 5723 5721 5719 5718 5715 5712 5710 5707 5703 5702 5702 5701 5698 5696 5693 5691 5688 5687 5687 5686 5685 5682 5678 5676 5673 5669 5666 5662 5657 5653 5648 5644 5640 5636 5633 5631 5631 5629 5626 5622
5727 5723 5722 5720 5717 5715 5713 5711 5709 5706 5702 5701 5701 5699 5697 5694 5691 5689 5687 5686 5686 5685 5683 5679 5676 5673 5671 5667 5664 5660 5657 5653 5648 5645 5642 5638 5634 5632 5629 5626 5622 5619
5724 5722 5720 5718 5715 5713 5710 5710 5708 5704 5701 5700 5699 5697 5695 5693 5690 5689 5686 5685 5685 5684 5681 5678 5675 5671 5668 5666 5662 5659 5656 5653 5648 5644 5642 5639 5635 5632 5629 5625 5621 5617
5722 5719 5718 5716 5713 5709 5707 5707 5705 5701 5699 5698 5696 5694 5694 5692 5690 5688 5687 5685 5683 5682 5680 5676 5672 5670 5666 5663 5661 5657 5654 5650 5647 5644 5641 5638 5634 5631 5628 5624 5621 5618
5719 5716 5715 5713 5709 5706 5706 5706 5703 5699 5697 5695 5693 5691 5692 5691 5689 5686 5685 5684 5682 5681 5678 5674 5672 5669 5665 5662 5660 5656 5653 5649 5646 5643 5640 5637 5634 5631 5628 5625 5622 5620
5715 5713 5711 5709 5706 5704 5704 5704 5700 5697 5694 5693 5691 5689 5689 5689 5687 5685 5683 5682 5681 5680 5677 5673 5671 5667 5663 5661 5659 5655 5652 5648 5645 5643 5640 5636 5633 5631 5628 5624 5622 5621
5711 5710 5708 5706 5704 5702 5702 5701 5697 5693 5692 5691 5690 5687 5686 5686 5684 5683 5681 5679 5678 5678 5676 5673 5670 5666 5663 5660 5657 5654 5650 5648 5645 5641 5639 5635 5632 5629 5625 5622 5621 5621
5707 5707 5706 5704 5702 5700 5700 5697 5692 5689 5689 5689 5687 5685 5684 5683 5682 5681 5679 5678 5677 5675 5674 5672 5668 5664 5662 5659 5655 5652 5649 5646 5643 5640 5637 5633 5629 5627 5624 5622 5622 5621
5705 5705 5704 5702 5700 5699 5698 5694 5690 5687 5687 5686 5685 5684 5682 5682 5681 5679 5678 5677 5676 5674 5673 5670 5665 5662 5660 5657 5654 5651 5648 5645 5642 5638 5635 5630 5627 5626 5624 5623 5623 5622
5704 5703 5701 5699 5698 5697 5695 5692 5688 5687 5686 5684 5683 5683 5681 5680 5680 5677 5676 5676 5674 5672 5671 5666 5662 5660 5657 5655 5653 5650 5647 5644 5640 5637 5634 5630 5627 5626 5625 5625 5624 5623
5702 5700 5699 5697 5696 5695 5693 5690 5687 5686 5684 5682 5682 5682 5680 5678 5678 5676 5674 5673 5671 5670 5668 5663 5659 5657 5654 5653 5651 5648 5645 5642 5639 5637 5634 5630 5628 5626 5625 5625 5624 5623
5699 5697 5696 5695 5694 5693 5691 5688 5685 5684 5682 5681 5680 5680 5679 5676 5675 5673 5671 5669 5668 5667 5664 5659 5657 5655 5651 5649 5647 5646 5644 5641 5638 5636 5633 5631 5629 5627 5626 5625 5624 5623
5696 5695 5694 5694 5693 5692 5689 5686 5683 5681 5679 5679 5678 5677 5676 5674 5672 5671 5669 5668 5667 5664 5660 5656 5654 5651 5647 5645 5643 5643 5642 5640 5637 5635 5633 5631 5628 5627 5626 5625 5623 5622
5694 5693 5693 5693 5692 5690 5686 5684 5681 5678 5677 5676 5675 5674 5673 5671 5669 5668 5667 5666 5666 5662 5657 5654 5652 5647 5644 5642 5640 5639 5639 5638 5637 5634 5632 5630 5629 5627 5626 5624 5623 5621
5693 5692 5692 5692 5691 5688 5684 5681 5678 5676 5675 5674 5673 5672 5670 5668 5666 5666 5665 5665 5664 5660 5655 5653 5649 5643 5640 5639 5637 5636 5635 5636 5635 5633 5631 5630 5628 5627 5625 5623 5621 5618
5692 5692 5691 5691 5689 5686 5682 5679 5677 5675 5673 5673 5671 5669 5667 5666 5664 5663 5662 5662 5661 5657 5653 5651 5646 5640 5638 5636 5633 5633 5632 5633 5633 5631 5629 5628 5626 5624 5623 5621 5619 5617
5691 5691 5691 5689 5686 5683 5679 5677 5674 5672 5670 5670 5668 5666 5665 5664 5663 5662 5660 5659 5658 5655 5652 5649 5643 5637 5635 5632 5630 5629 5628 5630 5631 5629 5627 5625 5624 5622 5620 5618 5616 5615
5690 5690 5689 5686 5683 5680 5676 5674 5671 5669 5668 5667 5665 5664 5664 5663 5662 5660 5658 5656 5655 5652 5650 5646 5640 5634 5631 5629 5627 5625 5625 5627 5629 5626 5625 5623 5621 5619 5618 5616 5614 5612
5689 5688 5685 5683 5680 5678 5674 5672 5670 5668 5666 5664 5662 5661 5661 5660 5660 5659 5656 5654 5652 5649 5647 5644 5637 5631 5628 5627 5624 5622 5623 5626 5627 5624 5622 5621 5618 5616 5615 5613 5610 5608
5688 5686 5683 5680 5679 5676 5673 5670 5669 5666 5664 5663 5661 5660 5659 5659 5660 5659 5657 5654 5651 5648 5646 5644 5637 5630 5625 5624 5622 5620 5622 5625 5625 5623 5620 5618 5615 5613 5612 5610 5606 5602
5686 5684 5681 5679 5676 5674 5672 5670 5668 5665 5662 5661 5661 5659 5658 5659 5660 5659 5656 5654 5650 5647 5645 5642 5637 5629 5623 5622 5620 5618 5620 5624 5624 5621 5618 5616 5614 5611 5608 5606 5603 5598
5685 5681 5679 5678 5676 5672 5670 5668 5666 5663 5660 5660 5661 5660 5659 5659 5659 5658 5655 5652 5649 5645 5642 5640 5637 5630 5623 5620 5618 5616 5617 5621 5622 5620 5616 5613 5612 5609 5605 5603 5600 5597